Home > Weather > San Luis Obispo > Past weeks

Flag for U.S.A. Weather for the Past 2 Weeks in San Luis Obispo, California, U.S.A.

Now
47 °F

Fog.


Feels Like: 45 °F
Forecast: 51 / 78 °F
Wind: 5 mph from Southeast

Location: San Luis Obispo County-Mc Chesney Field

Current Time: Feb 12, 2016 at 5:13:58 AM

Latest Report: Feb 12, 2016 at 4:56 AM


Visibility: 0 mi

Pressure: 30.12 "Hg

Humidity: 97%

Dew point: 46 °F

Location of San Luis ObispoLocation

Historic Weather in San Luis Obispo — Graph

°F

San Luis Obispo Temperature Yesterday

Maximum temperature yesterday: 77 °F (at 12:56 PM)
Minimum temperature yesterday: 46 °F (at 5:56 AM)
Average temperature yesterday: 57 °F

High & Low Weather Summary for the Past Weeks

 TemperatureHumidityPressure
High87 °F (Feb 9, 1:56 PM)97% (Feb 11, 9:56 PM)30.41 "Hg (Feb 11, 9:56 PM)
Low36 °F (Feb 2, 4:56 AM)17% (Feb 6, 10:56 AM)29.66 "Hg (Jan 31, 8:56 AM)
Average56 °F62%30.16 "Hg
* Reported Jan 28 3:56 AM — Feb 12 3:56 AM, San Luis Obispo, Weather by CustomWeather, © 2016

Note: Actual official high and low records may vary slightly from our data, if they occured in-between our weather recording intervals... More about our weather records

Advertising

San Luis Obispo Weather History for the Previous 24 Hours

 ConditionsComfort  
Time TempWeatherWind HumidityBarometerVisibility
3:56 AM
Fri, Feb 12
48 °FFog.3 mph96%30.13 "Hg0 mi
2:56 AM49 °FFog.No wind97%30.14 "Hg0 mi
1:56 AM48 °FFog.No wind96%30.14 "Hg0 mi
12:56 AM50 °FFog.No wind96%30.14 "Hg0 mi
11:56 PM
Thu, Feb 11
50 °FFog.5 mph93%30.16 "Hg0 mi
10:56 PM51 °FFog.No wind96%30.15 "Hg0 mi
9:56 PM52 °FFog.No wind97%30.14 "Hg0 mi
8:56 PM53 °FFog.5 mph93%30.14 "Hg1 mi
7:56 PM54 °FClear.No wind90%30.14 "Hg10 mi
6:56 PM58 °FClear.5 mph78%30.12 "Hg10 mi
5:56 PM61 °FClear.9 mph78%30.11 "Hg10 mi
4:56 PM66 °FSunny.6 mph63%30.10 "Hg10 mi
3:56 PM68 °FSunny.6 mph63%30.09 "Hg10 mi
2:56 PM70 °FScattered clouds.14 mph59%30.08 "Hg10 mi
12:56 PM77 °FSunny.5 mph40%30.09 "Hg10 mi
11:56 AM75 °FSunny.No wind43%30.11 "Hg10 mi
10:56 AM71 °FScattered clouds.5 mph55%30.13 "Hg10 mi
9:56 AM66 °FSunny.No wind43%30.12 "Hg10 mi
8:56 AM56 °FSunny.No wind65%30.13 "Hg10 mi
7:56 AM50 °FSunny.No wind74%30.11 "Hg10 mi
6:56 AM46 °FSunny.No wind77%30.10 "Hg10 mi
5:56 AM46 °FClear.No wind77%30.10 "Hg10 mi
Weather by CustomWeather, © 2016

See weather overviewHow to use our weather pages